West Palm Beach, FL

4:49 PM EDT on October 21, 2019 (GMT -0400)
Palm Beach International

Weather History for KPBI - September, 2019

Change the Weather History Date:

Friday, September 20, 2019

  Actual Average Record
Temperature  
Mean Temperature 82 °F 82 °F  
Max Temperature 86 °F 88 °F 94 °F (1927)
Min Temperature 78 °F 75 °F 65 °F (1911)
Degree Days  
Heating Degree Days 0 0  
Month to date heating degree days 0 0  
Since 1 July heating degree days 0 0  
Cooling Degree Days 17 17  
Month to date cooling degree days 373 340  
Year to date cooling degree days 3539 3046  
Growing Degree Days 30 (Base 50)    
Moisture  
Dew Point 69 °F    
Average Humidity 65    
Maximum Humidity 74    
Minimum Humidity 55    
Precipitation  
Precipitation 0.07 in 0.28 in 3.12 in (1981)
Month to date precipitation 1.35 5.71  
Year to date precipitation 45.31 46.43  
Snow  
Snow 0.00 in - - ()
Month to date snowfall 0.0  
Since 1 July snowfall 0.0  
Since 1 September snowfall 0.0  
Snow Depth 0.00 in    
Sea Level Pressure  
Sea Level Pressure 30.03 in    
Wind  
Wind Speed 20 mph (ENE)    
Max Wind Speed 30 mph    
Max Gust Speed 40 mph    
Visibility 10 miles    
Events      
T = Trace of Precipitation, MM = Missing Value Source: NWS Daily Summary

Daily Weather History Graph

Daily Weather History Graph

Search for Another Location

Airport or City:

Astronomy

Sep. 20, 2019 Rise Set
Actual Time 7:08 AM EDT 7:19 PM EDT
Civil Twilight 6:44 AM EDT 7:42 PM EDT
Nautical Twilight 6:17 AM EDT 8:09 PM EDT
Astronomical Twilight 5:50 AM EDT 8:36 PM EDT
Moon 11:40 PM EDT (9/20) 12:40 PM EDT (9/20)
Length of Visible Light 12h 57m
Length of Day
12h 11m
Waning Gibbous, 65% of the Moon is Illuminated
Sep 20
Waning Gibbous
Sep 21
Last Quarter
Sep 28
New
Oct 5
First Quarter
Oct 13
Full

Hourly Weather History & Observations

Time (EDT) Temp. Heat Index Dew Point Humidity Pressure Visibility Wind Dir Wind Speed Gust Speed Precip Events Conditions
12:53 AM 78.1 °F - 69.1 °F 74% 30.00 in 10.0 mi ENE 15.0 mph - N/A   Mostly Cloudy
1:53 AM 79.0 °F - 70.0 °F 74% 29.98 in 10.0 mi ENE 10.4 mph - N/A   Scattered Clouds
2:53 AM 79.0 °F - 68.0 °F 69% 29.98 in 10.0 mi ENE 16.1 mph 23.0 mph N/A   Mostly Cloudy
3:53 AM 79.0 °F - 69.1 °F 72% 29.96 in 10.0 mi ENE 15.0 mph - N/A   Scattered Clouds
4:53 AM 79.0 °F - 70.0 °F 74% 29.96 in 10.0 mi ENE 17.3 mph - N/A   Mostly Cloudy
5:53 AM 79.0 °F - 69.1 °F 72% 29.97 in 10.0 mi ENE 15.0 mph - N/A   Mostly Cloudy
6:53 AM 78.1 °F - 70.0 °F 76% 30.00 in 10.0 mi ENE 19.6 mph 28.8 mph N/A   Mostly Cloudy
7:53 AM 80.1 °F 83.6 °F 71.1 °F 74% 30.01 in 10.0 mi ENE 17.3 mph 24.2 mph N/A   Mostly Cloudy
8:53 AM 81.0 °F 84.4 °F 70.0 °F 69% 30.02 in 10.0 mi ENE 21.9 mph 28.8 mph 0.01 in   Mostly Cloudy
9:53 AM 82.0 °F 86.3 °F 71.1 °F 69% 30.05 in 10.0 mi East 25.3 mph 33.4 mph 0.03 in   Mostly Cloudy
10:53 AM 82.0 °F 86.3 °F 71.1 °F 69% 30.06 in 10.0 mi East 26.5 mph 33.4 mph N/A   Mostly Cloudy
11:53 AM 82.0 °F 85.9 °F 70.0 °F 67% 30.07 in 10.0 mi East 21.9 mph 29.9 mph N/A   Mostly Cloudy
12:53 PM 84.0 °F 89.6 °F 72.0 °F 67% 30.06 in 10.0 mi East 18.4 mph 27.6 mph N/A   Mostly Cloudy
1:53 PM 84.0 °F 87.8 °F 69.1 °F 61% 30.05 in 10.0 mi ENE 25.3 mph 34.5 mph N/A   Mostly Cloudy
2:53 PM 84.9 °F 89.4 °F 70.0 °F 61% 30.04 in 10.0 mi East 23.0 mph 34.5 mph N/A   Mostly Cloudy
3:53 PM 84.9 °F 88.2 °F 68.0 °F 57% 30.04 in 10.0 mi ENE 20.7 mph 32.2 mph N/A   Mostly Cloudy
4:53 PM 84.0 °F 86.5 °F 66.9 °F 56% 30.04 in 10.0 mi ENE 24.2 mph 32.2 mph N/A   Scattered Clouds
5:53 PM 82.0 °F 85.5 °F 69.1 °F 65% 30.04 in 10.0 mi ENE 21.9 mph 28.8 mph N/A   Mostly Cloudy
6:53 PM 82.0 °F 84.5 °F 66.9 °F 60% 30.05 in 10.0 mi ENE 16.1 mph 28.8 mph N/A   Scattered Clouds
7:53 PM 82.0 °F 84.1 °F 66.0 °F 58% 30.06 in 10.0 mi ENE 18.4 mph 27.6 mph N/A   Mostly Cloudy
8:53 PM 81.0 °F 83.0 °F 66.0 °F 60% 30.07 in 10.0 mi ENE 18.4 mph 27.6 mph N/A   Scattered Clouds
9:53 PM 81.0 °F 84.1 °F 69.1 °F 67% 30.09 in 10.0 mi ENE 20.7 mph 28.8 mph N/A   Mostly Cloudy
10:53 PM 81.0 °F 84.1 °F 69.1 °F 67% 30.09 in 10.0 mi East 18.4 mph 31.1 mph N/A   Mostly Cloudy
11:53 PM 80.1 °F 82.9 °F 69.1 °F 69% 30.09 in 10.0 mi ENE 20.7 mph 31.1 mph 0.00 in   Overcast